User: anonymous   Login
Location: City of Moscow
(46.7306°N, 116.9989°W)
Time: 07:49:05
(UTC+00:00)
Language:

Cosmos 1125 Rocket - Orbit

View from above orbital plane
View from above orbital plane
View from above satellite
View from above satellite

Ground track
Ground track

The orbit is defined by the following mean orbital elements,

1 11511U          26044.89297911 +.00000000 +00000-0 +79304-4 0 00001
2 11511  74.0331 256.4374 0014421  87.6229 272.6576 14.38264383    03
Epoch (UTC): 13 February 2026 21:25:53
Eccentricity: 0.0014421
inclination: 74.0331°
perigee height: 754 km
apogee height: 775 km
right ascension of ascending node: 256.4374°
argument of perigee: 87.6229°
revolutions per day: 14.38264383
mean anomaly at epoch: 272.6576°

The dashed part of the orbit path shows where the satellite is in the earth's shadow,  

DLR